Regional Weather Roundup
Issued by NWS

Current Version | Previous Version | Text Only | Print | Product List | Glossary On
Versions: 1 2 3 4 5 6 7 8 9 10 11 12 13 14 15 16 17 18 19 20 21 22 23 24 25 26 27 28 29 30 31 32 33 34 35 36 37 38 39 40 41 42 43 44 45 46 47 48 49 50
000
ASUS44 KFWD 292215
RWRTX
NORTH TEXAS HOURLY WEATHER ROUNDUP
NATIONAL WEATHER SERVICE FORT WORTH TX
500 PM CDT SUN MAR 29 2015

NOTE: "FAIR" INDICATES FEW OR NO CLOUDS BELOW 12,000 FEET WITH NO
SIGNIFICANT WEATHER AND/OR OBSTRUCTIONS TO VISIBILITY.

TXZ118-119-292300-
DALLAS/FORT WORTH METROPLEX

CITY           SKY/WX    TMP DP  RH WIND       PRES   REMARKS
DFW AIRPORT    MOSUNNY   82  58  43 S22G30    29.92F
DALLAS LOVE    MOSUNNY   84  55  36 S17G29    29.92F
FTW MEACHAM    SUNNY     84  59  42 S18G25    29.92F
DAL-EXECUTIVE  SUNNY     82  56  40 S15G30    29.92F
FTW-ALLIANCE   MOSUNNY   83  59  44 S15G21    29.92S
FTW-NAS-JRB    MOSUNNY   86  59  39 S18       29.96F
FTW-SPINKS     SUNNY     84  57  39 S20G28    29.94F
ARLINGTON      SUNNY     84  55  36 S20G31    29.92F
GRAND PRAIRIE  SUNNY     82  57  42 S15G26    29.94F
ADDISON        SUNNY     82  54  36 S13G28    29.94F
MESQUITE       SUNNY     82  54  36 S22G28    29.95F
LANCASTER      SUNNY     81  54  39 S16G25    29.96F
$$

TXZ091>094-102>105-117-120-121-131>134-292300-
NORTH CENTRAL TEXAS

CITY           SKY/WX    TMP DP  RH WIND       PRES   REMARKS
SHRMAN/DENISON SUNNY     82  60  46 S9        29.98R
GAINESVILLE    SUNNY     82  58  43 S9        29.97S
BOWIE          SUNNY     84  50  31 N16G23    29.95R
BRIDGEPORT     SUNNY     87  56  34 S12       29.93S
DECATUR        SUNNY     86  50  28 S7        29.94S
DENTON         SUNNY     84  59  42 S16       29.94R
MCKINNEY       SUNNY     82  57  42 S16       29.95R
GREENVILLE     SUNNY     82  50  32 S18G28    29.95S
ROCKWALL       SUNNY     82  56  41 S29G36    29.93F
TERRELL        SUNNY     83  54  36 SW18G24   29.95F
WAXAHACHIE     SUNNY     82  56  41 S21G29    29.96F
CLEBURNE       SUNNY     82  59  44 S18G25    29.95F
GRANBURY         N/A     88  55  32 SE13      29.93S
$$

TXZ083>090-098>101-113>116-127>130-139>142-154-155-292300-
WESTERN NORTH TEXAS

CITY           SKY/WX    TMP DP  RH WIND       PRES   REMARKS
WICHITA FALLS  SUNNY     82  51  34 N21       29.98R
WF-KICKAPOO    SUNNY     83  49  30 N16       29.98R
VERNON         SUNNY     81  24  12 NE25G33   30.04R
ABILENE        SUNNY     90  40  17 N15       29.95S
ABILENE-DYESS  SUNNY     89  47  23 N17G25    29.94S
BRECKENRIDGE   SUNNY     91  46  21 SW6       29.92S
GRAHAM         SUNNY     90  54  29 N16       29.90S
MINERAL WELLS  SUNNY     89  51  27 S12       29.90F
STEPHENVILLE   SUNNY     87  51  28 S13G20    29.96S
COMANCHE       SUNNY     88  54  31 S13G24    29.94S
BROWNWOOD      SUNNY     88  54  31 S10G23    29.93S
COLEMAN        SUNNY     92  46  20 SW9G18    29.94S
BRADY          SUNNY     91  46  21 S16       29.94F
$$

TXZ143>147-156>162-174-175-292300-
CENTRAL TEXAS

CITY           SKY/WX    TMP DP  RH WIND       PRES   REMARKS
WACO           SUNNY     81  54  39 S25G31    29.96F
WACO-TSTC      SUNNY     84  50  30 S21G31    29.97F
WACO-MCGREGOR  SUNNY     84  54  34 S23G32    29.98F
HILLSBORO      SUNNY     82  55  39 S23G30    29.95F
CORSICANA      SUNNY     83  54  36 S20G26    29.98F
MEXIA          SUNNY     82  53  37 S17G28    29.98F
HEARNE         SUNNY     82  55  39 S15G26    30.03F
CAMERON        SUNNY     82  56  41 S20       30.00F
TEMPLE         SUNNY     82  54  36 S29G35    29.97F
KILLEEN        SUNNY     83  51  33 S20G31    29.96F
KILLEEN-SKYLRK SUNNY     84  52  32 MISG      29.98F
FORT HOOD      SUNNY     85  52  32 S17G24    29.96F
GATESVILLE     SUNNY     84  54  34 S16G23    29.97F
HAMILTON       SUNNY     87  51  29 S22G28    29.96F
$$

TXZ095>097-106>112-122>126-135>138-148>153-164>167-292300-
EAST TEXAS

CITY           SKY/WX    TMP DP  RH WIND       PRES   REMARKS
SULPHUR SPRNGS SUNNY     82  50  31 S21G28    29.98F
MOUNT PLEASANT SUNNY     83  46  26 S16G24    29.99F
GILMER         SUNNY     83  49  30 S12G22    29.99F
MINEOLA        SUNNY     82  46  28 S13G21    29.98F
TYLER          SUNNY     83  51  33 S20G28    29.99F
LONGVIEW       SUNNY     84  53  34 SW18G29   29.99F
MARSHALL         N/A     86  52  30 SW15G21   30.02F
ATHENS         SUNNY     82  48  30 S15G23    29.98F
PALESTINE      SUNNY     84  54  34 S16G26    30.02S
JACKSONVILLE   SUNNY     81  52  36 S14G25    30.04F
HENDERSON      SUNNY     82  52  34 S13G22    30.02F
NACOGDOCHES    SUNNY     81  59  47 S15G23    30.05F
LUFKIN         MOSUNNY   83  58  42 S15G23    30.05F
$$

SUPPLEMENTAL OBSERVATIONS (CENTRAL)

CITY           SKY/WX    TMP DP  RH WIND       PRES   REMARKS
LAKE TEXOMA      N/A     81  52  36 SW13        N/A
CADDO GRASSLND   N/A     81  55  41 S13G21      N/A
PAT MAYSE LAKE   N/A     75  52  43 S15         N/A
GREENVILLE       N/A     82  54  36 S14G26      N/A
CEDAR HILL       N/A     84  54  34 S14G22      N/A
MCGREGOR         N/A     82  54  36 S24G32      N/A
TEMPLE           N/A     81  54  39 S22G30      N/A
$$

SUPPLEMENTAL OBSERVATIONS (WEST)

CITY           SKY/WX    TMP DP  RH WIND       PRES   REMARKS
MILLERS CREEK    N/A     81  46  30 N22G31      N/A
POSSUM KINGDOM   N/A     91  46  21 SW8         N/A
LBJ GRASSLAND    N/A     88  50  27 SE9         N/A
GRANBURY         N/A     88  52  29 S15G22      N/A
HAMBY            N/A     88  43  20 N16G23      N/A
IVIE RESERVOIR   N/A     93  39  15 SW14        N/A
COLORADO BEND    N/A     84  50  30 S14G22      N/A
$$

SUPPLEMENTAL OBSERVATIONS (EAST)

CITY           SKY/WX    TMP DP  RH WIND       PRES   REMARKS
CLARKSVILLE      N/A     82  50  32 SW8G24      N/A
TEXARKANA        N/A     86  50  28 S7G17       N/A
LINDEN           N/A     84  48  28 SW9G21      N/A
CADDO LAKE       N/A     86  52  30 SW6G24      N/A
GILMER           N/A     84  48  28 SW12G24     N/A
HENDERSON        N/A     82  50  32 S20G28      N/A
LUFKIN           N/A     82  55  39 MISG        N/A
S SABINE NF      N/A     82  57  42 CALM        N/A
$$

SUPPLEMENTAL OBSERVATIONS ARE A COLLECTION OF AUTOMATED INSTRUMENTS
THAT ARE MAINTAINED BY A VARIETY OF FEDERAL AND STATE AGENCIES.
CERTAIN ELEMENTS...SUCH AS HUMIDITY VALUES AND SUSTAINED WIND
SPEEDS...MAY BE APPROXIMATED.



USA.gov is the U.S. government's official web portal to all federal, state and local government web resources and services.